This is the latest recevied weather packets stored in our database for station/object OK2ILA-13. If no packets are shown the sender has not sent any weather packets the latest 10 day(s).
| Time | Temp. | Humidity | Pressure | Rain* | Wind** | Luminosity | Snow |
|---|---|---|---|---|---|---|---|
| 1777509392 | -1.67° C | 56% | 1028.3 hPa | - | - | - | - |
| 1777508793 | -1.67° C | 55% | 1028.3 hPa | - | - | - | - |
| 1777508193 | -1.11° C | 54% | 1028.3 hPa | - | - | - | - |
| 1777499797 | -0.56° C | 52% | 1027.9 hPa | - | - | - | - |
| 1777497397 | -0.56° C | 50% | 1027.7 hPa | - | - | - | - |
| 1777494400 | 0° C | 48% | 1027.2 hPa | - | - | - | - |
| 1777493201 | 0.56° C | 47% | 1027.1 hPa | - | - | - | - |
| 1777491402 | 0.56° C | 44% | 1027 hPa | - | - | - | - |
| 1777490203 | 1.11° C | 42% | 1026.8 hPa | - | - | - | - |
| 1777489004 | 1.67° C | 41% | 1026.7 hPa | - | - | - | - |
| 1777487205 | 2.22° C | 40% | 1026.3 hPa | - | - | - | - |
| 1777483007 | 3.33° C | 36% | 1025.7 hPa | - | - | - | - |
| 1777482408 | 3.89° C | 35% | 1025.7 hPa | - | - | - | - |
| 1777481809 | 3.89° C | 34% | 1025.5 hPa | - | - | - | - |
| 1777480609 | 4.44° C | 34% | 1025.4 hPa | - | - | - | - |
| 1777480009 | 4.44° C | 33% | 1025.3 hPa | - | - | - | - |
| 1777479409 | 4.44° C | 34% | 1025.2 hPa | - | - | - | - |
| 1777478810 | 4.44° C | 33% | 1025.2 hPa | - | - | - | - |
| 1777478210 | 4.44° C | 33% | 1025.2 hPa | - | - | - | - |
| 1777477010 | 5.56° C | 33% | 1025.2 hPa | - | - | - | - |
| 1777476411 | 5.56° C | 31% | 1025 hPa | - | - | - | - |
| 1777471787 | 6.67° C | 29% | 1025 hPa | - | - | - | - |
| 1777469388 | 6.11° C | 32% | 1024.7 hPa | - | - | - | - |
| 1777468789 | 6.11° C | 29% | 1024.8 hPa | - | - | - | - |
| 1777468189 | 6.11° C | 31% | 1024.6 hPa | - | - | - | - |
* Rain since midnight (hover to see other rain measurements)
** Current wind speed in m/s (hover to see current wind gust speed)